Theta_e
303 307 308 313 320 321 321 323 322 323 322 323 325 325 325 325 326 331 336 333 331 334 339 341 341 341 340 339 338 336 331 326 327 329 330 328 321 315 314 315 314 317 318 314 313 311 311 317 327
302 308 311 315 317 316 317 319 319 320 322 324 324 325 324 324 325 332 333 329 332 329 338 339 342 341 341 339 338 338 335 327 324 324 324 326 320 314 314 317 326 332 331 316 312 311 316 326 331
305 308 314 316 315 315 315 316 316 317 319 322 323 324 324 325 325 321 320 330 333 336 338 339 341 340 340 340 338 336 336 329 325 323 323 326 321 314 318 322 331 333 333 315 312 320 326 331 331
306 309 313 315 314 315 315 315 314 316 318 320 321 322 323 321 321 317 318 324 333 337 338 339 340 339 340 340 338 336 336 330 326 325 326 328 325 318 318 320 329 332 331 319 326 329 328 330 329
305 308 312 313 312 312 312 312 313 314 317 318 319 321 321 319 316 318 318 318 323 331 339 338 338 338 340 339 338 336 335 330 331 328 330 328 328 324 319 317 322 329 329 328 329 332 330 328 325
305 308 308 310 310 310 310 311 312 313 313 314 314 317 319 318 319 317 315 315 317 331 337 338 338 338 340 338 338 337 332 328 329 331 332 332 330 328 323 318 321 328 328 325 330 331 330 326 321
305 305 305 306 307 308 308 310 310 311 311 311 310 311 314 314 314 315 313 313 314 325 335 336 339 338 341 338 337 336 329 329 331 332 330 329 330 329 329 320 321 327 324 325 325 330 327 322 317
305 305 304 305 305 306 308 308 308 308 308 308 308 309 311 311 307 309 309 311 313 313 327 333 337 340 338 339 337 335 329 330 330 331 329 331 332 331 330 326 325 326 324 326 329 327 323 317 318
304 303 304 305 305 305 306 305 306 306 306 306 305 306 306 306 305 305 305 306 309 310 313 327 333 336 339 339 338 336 332 329 328 330 330 331 332 330 329 326 328 327 326 327 327 326 325 323 321
304 303 304 305 304 303 304 303 303 304 304 305 305 304 304 304 304 304 304 303 304 306 309 313 324 330 335 335 337 336 334 331 330 330 330 330 331 330 329 327 327 326 326 326 326 326 325 325 322
304 303 304 304 304 303 303 303 303 303 302 303 303 303 303 303 303 303 303 302 302 302 305 307 313 315 328 331 332 337 334 332 332 332 331 330 331 330 328 327 326 325 326 326 326 325 325 325 323
302 303 303 303 303 302 302 302 302 302 302 302 302 302 302 302 302 302 302 302 302 302 303 305 307 311 309 326 333 332 336 333 332 333 332 331 331 330 328 327 326 325 325 324 325 325 324 325 325
302 302 303 302 302 302 302 302 301 301 302 302 302 302 302 302 302 302 302 302 302 302 302 303 306 307 308 314 325 330 332 335 332 332 332 331 331 330 329 327 326 324 325 324 325 326 326 325 324
302 302 302 302 302 302 302 302 302 302 303 303 303 303 303 303 302 302 302 302 302 302 303 304 304 305 306 306 319 328 331 331 334 332 333 333 331 331 330 328 326 324 323 323 324 325 326 325 324
302 302 302 302 303 303 303 302 302 303 303 303 303 303 303 303 303 303 303 302 302 302 302 303 303 303 303 303 312 318 329 330 334 334 333 333 332 331 330 328 326 324 323 323 324 325 326 325 324
303 302 303 304 303 303 303 302 303 303 303 303 303 303 303 303 303 303 303 302 302 302 303 303 303 304 302 302 306 315 319 328 329 332 332 330 332 331 329 328 326 324 323 324 325 325 326 327 324
304 303 301 301 302 303 303 304 303 303 303 303 303 303 303 303 303 303 303 302 302 302 302 303 303 303 302 302 305 310 317 320 329 333 333 333 331 331 329 327 326 325 323 323 325 325 326 326 325
302 302 301 301 301 302 302 303 303 303 303 301 300 300 299 300 302 303 303 303 302 302 302 303 303 303 302 303 304 310 316 319 325 328 332 327 329 330 329 327 326 325 323 322 323 324 325 324 324
301 301 300 299 300 300 303 303 302 302 301 298 296 296 296 297 298 301 303 303 303 302 302 303 303 304 303 303 304 311 317 320 328 326 326 330 329 330 327 327 326 325 323 322 323 322 323 322 322
301 300 299 299 299 298 298 298 298 301 296 294 294 293 293 294 295 297 300 302 302 302 302 303 303 304 304 304 305 318 318 322 328 329 328 328 328 328 327 324 323 323 321 322 322 322 321 321 324
299 298 300 297 297 297 297 299 300 296 293 292 291 290 290 291 293 295 297 300 302 302 302 303 304 304 304 310 306 317 324 323 327 326 327 326 327 327 325 323 321 318 321 322 321 321 320 321 319
297 297 296 297 298 298 298 301 295 293 292 291 289 288 287 289 297 294 296 298 301 302 302 303 304 303 314 314 312 323 322 325 325 327 326 326 325 325 324 321 318 315 318 320 321 320 320 318 318
296 296 296 297 298 298 300 301 294 291 290 289 288 286 286 291 300 297 296 298 300 302 302 303 303 303 318 317 317 321 324 326 325 325 325 326 326 326 323 321 317 318 319 317 317 320 321 320 319
295 295 299 301 301 301 303 302 292 290 288 287 286 285 286 291 296 301 302 301 300 301 302 303 304 311 317 319 321 324 323 325 325 325 325 325 324 322 322 321 318 316 318 318 318 318 319 320 319
294 294 297 300 303 303 301 296 291 288 287 286 285 284 286 289 293 295 300 306 307 309 309 308 313 315 317 321 322 324 326 325 323 324 324 324 323 322 322 322 316 319 320 320 320 320 319 319 319
295 292 291 296 300 300 299 295 293 288 286 284 284 285 285 286 289 292 295 299 301 304 306 310 313 314 313 320 321 321 322 323 322 321 320 320 320 319 317 318 319 319 319 319 318 316 318 315 314
292 292 293 295 297 298 298 294 295 288 285 284 283 283 284 285 287 289 292 294 297 300 299 305 308 301 309 316 316 317 316 317 316 316 316 315 310 308 310 316 313 309 312 310 309 308 306 305 304
293 293 293 293 290 296 299 291 287 285 282 282 282 282 283 283 285 287 289 290 293 294 294 296 297 296 302 308 311 310 308 310 312 313 311 310 308 308 310 312 311 307 307 306 306 302 301 300 299
291 290 293 293 292 294 295 290 285 283 282 281 281 281 282 282 283 285 286 288 289 291 291 291 290 294 299 304 304 304 304 305 307 308 308 306 302 304 303 304 302 300 301 300 301 300 297 295 289
292 289 289 289 290 289 290 290 284 281 281 280 280 280 281 281 282 283 285 287 287 288 289 286 286 300 295 299 301 298 295 295 297 300 300 301 301 301 301 301 301 299 295 290 288 286 285 285 285
Wind_Speed
6 3 1 4 4 6 12 11 13 13 15 18 15 4 5 15 6 1 10 5 6 5 8 12 11 18 25 25 24 24 24 22 23 22 20 18 17 18 19 17 15 13 13 14 17 17 20 19 17
6 5 3 7 4 10 10 14 17 15 20 9 3 11 5 7 15 10 3 13 8 8 2 13 16 17 24 26 25 24 24 23 23 22 20 19 18 20 19 17 16 14 13 14 17 20 21 18 13
9 2 7 4 7 16 10 10 14 8 24 19 4 10 8 2 10 6 10 14 8 11 1 14 15 15 25 27 27 25 24 24 23 22 20 19 20 20 19 18 17 17 14 14 19 20 18 16 15
5 6 9 8 19 16 19 16 5 5 12 9 4 4 4 9 6 8 11 9 7 9 6 12 12 14 26 27 28 27 26 25 24 23 21 21 21 20 20 19 20 21 16 16 19 18 17 16 15
8 7 9 12 18 19 16 17 13 7 6 13 5 3 12 7 5 4 8 16 10 2 2 10 13 15 22 29 29 29 29 26 24 23 22 21 22 21 21 19 21 21 19 21 20 17 17 17 15
6 8 8 14 17 16 13 6 3 3 10 17 17 8 4 7 6 11 13 14 17 4 5 7 14 16 22 29 30 30 30 28 26 25 22 20 21 21 22 21 22 21 21 23 21 19 16 17 14
8 7 15 18 18 19 17 11 4 5 7 12 17 7 9 7 9 12 13 14 17 11 6 9 10 16 26 24 31 31 29 29 29 27 23 21 20 18 21 22 24 22 21 22 21 18 18 17 15
7 4 15 16 15 19 14 3 4 2 5 14 10 3 3 17 22 18 18 11 9 19 11 9 13 18 24 28 29 32 31 31 30 27 25 24 22 20 19 21 23 21 21 20 18 16 18 17 15
8 4 10 15 14 14 15 12 3 4 7 10 17 22 24 28 34 26 26 24 13 13 20 14 16 16 26 31 30 32 32 33 32 30 28 26 24 23 22 22 21 20 19 17 16 16 16 15 16
7 6 8 7 9 8 11 14 18 14 12 16 20 24 23 22 25 19 19 26 23 16 19 21 18 20 19 20 30 35 35 35 34 33 31 29 28 26 25 24 22 21 19 16 16 15 16 16 16
7 13 15 17 22 22 17 13 18 16 15 19 18 22 22 20 21 22 22 24 28 23 16 23 22 19 21 21 19 33 40 39 37 36 34 33 31 28 28 25 24 24 23 21 19 17 17 16 15
11 16 18 18 21 21 13 22 16 22 22 25 27 27 28 29 26 25 24 27 27 27 24 21 29 24 22 17 25 20 42 42 42 40 38 37 37 32 29 27 28 26 25 22 21 19 18 16 14
16 16 19 18 21 21 21 17 18 26 28 28 29 30 31 29 30 29 27 28 26 27 22 18 26 27 24 19 25 16 18 43 47 44 40 41 40 36 32 28 28 28 27 25 23 21 20 18 18
16 19 19 21 22 23 19 20 21 23 30 30 28 28 27 28 28 26 24 23 26 24 18 18 23 26 23 21 23 23 37 9 47 44 42 43 42 39 36 31 30 28 27 25 22 21 20 18 19
14 16 16 18 22 10 16 12 14 28 28 28 20 19 20 21 22 24 23 20 23 22 21 19 23 23 20 20 20 22 22 35 23 36 47 36 40 38 35 32 29 29 28 24 24 24 23 22 21
16 13 11 9 2 9 4 13 16 19 15 18 19 22 26 25 21 22 21 17 18 19 18 17 19 20 15 16 16 21 24 26 13 49 38 36 41 37 33 32 30 24 26 29 26 25 24 24 24
4 11 17 15 15 15 7 13 12 17 22 20 18 22 24 23 24 23 20 15 16 16 15 17 16 19 12 13 12 16 22 17 29 30 40 34 31 36 33 31 31 25 23 29 25 25 24 22 22
15 14 12 19 16 20 18 17 15 21 12 15 21 26 28 27 20 19 20 16 16 14 17 17 16 16 10 13 14 8 15 19 14 16 26 38 37 38 31 27 28 26 24 28 28 24 24 22 19
15 16 20 18 17 13 12 12 8 14 8 17 22 24 28 30 28 23 16 18 15 16 18 18 16 11 13 16 15 10 10 16 10 16 21 31 43 38 28 25 24 24 21 24 26 26 23 25 19
15 21 20 15 11 12 11 17 15 8 19 22 24 27 29 30 30 24 21 15 13 15 16 16 15 13 14 17 18 13 10 12 13 15 19 23 26 27 26 19 17 17 22 23 24 24 26 26 23
17 18 14 19 21 18 12 4 10 11 18 25 28 29 31 32 33 29 22 18 11 15 15 16 14 16 15 16 19 15 12 11 15 14 24 16 25 25 21 22 22 18 21 22 23 22 24 25 28
18 15 20 20 9 5 8 3 15 14 17 21 30 35 38 43 37 26 19 18 14 13 14 14 17 16 11 16 19 18 12 14 18 19 16 15 26 24 18 16 16 15 16 18 19 20 22 22 21
7 24 19 18 8 1 1 1 6 13 19 24 24 37 42 43 28 12 15 15 14 16 12 13 16 17 14 15 18 18 12 11 11 16 9 19 30 26 23 17 16 12 15 15 17 20 16 18 18
26 17 10 2 3 0 9 1 8 9 15 21 26 40 43 42 37 30 16 14 11 9 7 14 15 11 12 17 19 21 14 11 17 19 24 27 28 29 21 24 22 18 18 19 18 15 17 18 20
19 16 4 3 3 3 6 9 6 14 14 15 21 34 38 38 41 40 31 26 9 3 5 7 6 6 11 16 19 20 19 15 15 20 24 26 27 22 25 27 23 20 20 20 19 17 18 18 18
10 5 3 4 5 4 8 4 5 16 16 22 24 27 35 48 45 42 29 25 19 9 5 7 9 17 24 28 27 25 21 20 22 19 23 22 20 19 22 27 26 22 24 26 23 20 18 13 10
9 5 8 4 5 3 3 5 4 23 16 24 31 39 43 42 43 39 30 24 19 15 14 15 19 25 32 33 31 31 30 28 28 23 19 19 27 29 25 20 22 25 19 19 20 21 23 20 20
5 6 3 3 5 6 3 3 4 22 23 23 25 33 36 38 40 38 28 25 21 21 20 23 30 34 40 40 39 37 36 36 33 30 31 31 33 36 33 29 26 28 29 27 25 26 25 23 24
8 5 4 2 2 2 3 2 3 10 14 17 20 28 31 33 34 31 28 23 21 22 25 27 31 41 47 47 46 45 45 45 42 42 40 40 40 41 40 38 36 34 32 31 30 28 26 26 26
9 7 4 2 6 1 3 1 2 6 13 18 21 24 26 29 29 33 27 22 23 29 26 27 34 48 48 48 47 47 48 49 52 50 47 43 42 40 39 39 37 36 34 33 32 32 30 28 27
Wind_Direction
317 30 46 206 243 232 243 232 257 257 264 269 290 292 274 332 266 251 148 49 4 56 300 271 255 212 199 194 192 193 194 187 188 190 188 189 186 178 173 170 167 163 166 169 161 155 149 147 147
349 54 210 246 229 242 246 231 241 241 233 232 274 321 272 294 292 92 273 351 13 356 238 261 251 223 207 199 196 198 198 194 192 193 191 189 188 179 171 165 158 153 157 165 159 154 151 152 158
342 324 253 218 231 236 249 267 290 348 326 216 242 216 243 26 38 71 6 9 23 353 331 256 248 238 213 206 201 202 204 200 196 195 193 190 189 183 175 168 161 165 173 164 159 159 162 165 166
337 236 259 254 246 244 238 246 321 341 312 284 24 329 324 58 72 42 10 2 30 31 332 260 255 252 216 211 207 205 208 203 201 199 195 192 192 191 183 177 169 172 178 161 163 173 172 178 179
265 265 248 250 249 260 272 284 309 319 303 294 243 259 280 71 71 11 16 348 342 296 71 267 271 255 221 214 212 210 208 206 203 202 199 196 195 195 193 187 185 181 184 173 175 187 183 187 187
283 234 258 254 262 266 263 345 17 10 324 315 316 307 235 129 328 349 359 9 339 332 227 240 267 264 222 218 216 214 209 206 205 201 202 196 198 201 202 194 190 185 187 183 188 194 190 193 193
240 270 268 272 274 284 299 353 20 358 326 296 339 334 305 347 350 324 355 350 341 330 272 235 244 258 221 220 221 218 212 206 203 204 203 202 203 206 196 193 192 192 194 189 195 192 195 193 193
285 282 265 264 271 273 285 348 75 43 276 292 305 262 276 273 328 331 319 319 347 323 296 278 246 224 233 220 223 220 212 207 207 206 204 198 195 201 203 192 191 189 188 187 188 187 188 191 196
259 253 244 251 257 272 308 317 230 241 249 265 281 284 289 287 300 311 305 300 303 320 312 278 256 240 210 215 226 224 217 211 210 208 205 200 197 206 203 203 189 189 189 196 193 188 188 194 197
220 239 248 266 293 316 301 311 315 312 272 259 259 266 276 281 291 302 307 305 301 302 310 299 269 270 241 225 213 223 220 211 209 210 204 204 203 205 202 201 189 191 192 198 200 198 195 202 203
243 251 287 312 324 327 321 310 302 303 278 276 273 278 276 283 279 287 296 292 290 294 296 295 288 290 267 254 240 218 221 212 210 209 206 204 205 206 204 204 193 191 190 199 203 208 203 211 212
282 282 288 297 311 317 305 308 296 287 284 288 290 286 285 281 281 280 281 280 279 287 277 285 284 286 301 277 228 259 212 212 212 210 207 203 206 204 205 206 201 193 195 191 207 209 208 213 194
283 277 284 305 310 306 299 285 281 277 280 278 277 276 273 274 275 275 274 274 278 281 289 285 282 283 294 281 272 270 227 215 215 210 209 205 207 205 205 205 206 200 195 194 204 207 211 213 200
300 301 297 292 286 284 278 276 270 272 281 280 276 275 277 273 273 276 274 270 270 275 284 275 285 284 288 296 282 267 222 262 216 211 213 198 211 207 207 205 205 206 199 200 202 208 212 209 215
303 288 286 277 266 249 278 287 270 271 277 263 275 279 277 276 278 274 273 269 268 268 272 283 287 289 280 288 287 286 263 264 218 216 207 199 205 207 210 207 208 208 202 200 205 211 214 218 216
272 265 276 303 182 276 318 288 282 293 344 331 317 308 300 295 291 286 276 264 265 265 269 282 286 293 281 276 285 282 297 261 249 217 203 210 196 208 213 212 209 211 200 201 209 214 219 214 219
16 323 312 308 317 320 301 295 273 300 306 293 291 289 283 282 280 282 279 268 259 261 273 279 282 287 286 268 265 279 281 292 243 230 217 199 214 215 218 217 209 205 202 207 214 211 220 211 207
311 304 301 301 311 297 291 286 269 275 347 13 10 358 352 350 326 301 283 268 252 277 264 275 274 284 285 261 248 253 283 303 264 240 209 215 203 203 217 218 213 204 208 213 219 219 222 227 233
293 307 307 304 302 2 326 322 311 25 31 27 9 355 346 335 327 319 309 276 270 283 268 264 267 280 283 258 239 233 284 290 263 238 255 199 214 218 204 209 212 210 220 224 222 229 224 234 231
321 313 305 302 335 319 305 305 300 348 23 10 7 355 340 329 320 306 309 312 291 281 273 267 259 263 267 260 233 229 275 291 235 227 227 232 190 200 212 200 200 221 230 229 226 231 229 235 231
320 302 315 312 317 288 251 9 53 36 21 11 6 351 339 327 311 300 292 293 275 275 272 268 265 260 265 258 233 223 247 278 238 225 229 218 219 207 197 216 206 206 228 238 240 232 236 234 244
315 336 310 301 319 296 37 141 33 12 3 6 358 347 338 329 321 273 272 274 259 272 272 257 258 275 251 248 224 218 223 216 226 224 232 226 231 203 198 200 199 205 232 234 242 249 243 241 248
309 313 301 289 261 256 122 138 9 20 359 352 348 341 338 339 348 305 268 272 268 265 269 286 280 275 231 226 216 209 223 190 206 227 219 222 207 220 210 201 192 209 226 235 239 235 237 237 242
335 314 298 202 125 261 41 159 31 15 355 341 343 342 341 346 358 14 347 314 296 275 309 277 276 270 242 214 198 193 196 183 212 216 208 206 210 210 200 201 199 197 220 218 219 224 230 234 240
345 353 356 20 29 44 14 63 65 16 6 346 339 334 343 355 7 12 21 38 56 99 223 246 233 201 184 187 192 177 165 172 190 197 199 199 196 204 207 211 203 210 223 233 228 228 227 231 224
346 37 55 346 346 321 40 20 122 35 6 354 347 348 358 7 7 15 23 42 52 54 77 153 154 151 133 140 143 136 139 155 167 157 157 160 164 166 167 173 185 211 223 214 219 202 218 216 215
323 29 290 274 211 266 84 25 208 353 354 359 360 4 4 2 7 15 28 42 60 84 93 120 137 127 124 131 124 124 125 128 130 134 134 132 122 116 121 132 128 119 120 113 115 106 107 112 105
10 337 4 326 17 338 74 88 282 342 340 351 358 1 357 3 13 22 33 45 70 85 94 114 115 114 115 117 116 114 115 113 113 116 113 112 114 113 111 106 107 110 108 110 107 104 102 99 90
5 17 322 237 92 259 308 259 26 334 344 347 349 357 358 3 13 30 38 54 74 90 96 97 97 112 111 114 115 116 115 115 119 116 118 119 116 110 106 108 108 102 98 97 94 89 82 78 79
85 351 330 45 321 239 211 278 77 24 2 349 359 358 360 14 28 39 51 70 73 89 96 81 88 106 103 107 110 105 105 106 106 107 108 109 103 100 101 101 98 92 87 87 87 88 85 80 75